Home   Weather   Oceanside   Past weeks

Flag for USA Past Weather in Oceanside, California, USA — Yesterday and Last 2 Weeks

Now
60 °F

Overcast.


Feels Like: 60 °F
Forecast: 56 / 63 °F
Wind: No wind

Location: Oceanside Weather Reporting Station

Current Time: Dec 10, 2016 at 8:29:59 pm

Latest Report: Dec 10, 2016 at 7:52 pm


Visibility: 8 mi

Pressure: 30.11 "Hg

Humidity: 86%

Dew Point: 56 °F

Location of OceansideLocation

Past Weather in Oceanside — Graph

°F

Oceanside Temperature Yesterday

Maximum temperature yesterday: 64 °F (at 11:52 am)
Minimum temperature yesterday: 42 °F (at 6:52 am)
Average temperature yesterday: 54 °F

High & Low Weather Summary for the Past Weeks

 TemperatureHumidityPressure
High73 °F (Dec 4, 12:52 pm)100% (Dec 2, 4:03 am)30.27 "Hg (Dec 2, 4:03 am)
Low35 °F (Nov 26, 4:52 am)13% (Dec 3, 10:52 am)29.83 "Hg (Nov 28, 4:52 pm)
Average54 °F70%30.03 "Hg
* Reported Nov 25 6:52 pm — Dec 10 6:52 pm, Oceanside, Weather by CustomWeather, © 2016

Note: Actual official high and low records may vary slightly from our data, if they occured in-between our weather recording intervals... More about our weather records

Advertising

Oceanside Weather History for the Previous 24 Hours

Scroll right to see more
 ConditionsComfort  
Time TempWeatherWind HumidityBarometerVisibility
6:52 pm
Sat, Dec 10
58 °FOvercast.No wind90%30.10 "Hg7 mi
5:52 pm61 °FPassing clouds.No wind87%30.08 "Hg7 mi
4:52 pm61 °FPassing clouds.No wind87%30.09 "Hg7 mi
3:52 pm62 °FPassing clouds.5 mph86%30.09 "Hg9 mi
2:52 pm64 °FSunny.7 mph78%30.09 "Hg10 mi
1:52 pm65 °FPartly sunny.8 mph73%30.11 "Hg10 mi
12:52 pm64 °FOvercast.9 mph73%30.12 "Hg10 mi
11:52 am63 °FOvercast.No wind75%30.14 "Hg10 mi
10:52 am63 °FOvercast.5 mph73%30.16 "Hg6 mi
9:52 am59 °FOvercast.5 mph81%30.19 "Hg5 mi
8:52 am57 °FFog.7 mph87%30.19 "Hg4 mi
7:52 am56 °FFog.3 mph90%30.18 "Hg4 mi
6:52 am54 °FFog.6 mph97%30.16 "Hg4 mi
5:52 am54 °FFog.6 mph97%30.15 "Hg4 mi
5:03 am55 °FFog.7 mph93%30.16 "Hg4 mi
3:52 am56 °FFog.No wind93%30.15 "Hg4 mi
2:52 am56 °FFog.No wind90%30.14 "Hg5 mi
1:52 am56 °FFog.6 mph90%30.15 "Hg5 mi
12:52 am54 °FFog.No wind93%30.17 "Hg5 mi
11:52 pm
Fri, Dec 9
54 °FFog.3 mph93%30.17 "Hg5 mi
10:52 pm52 °FFog.3 mph97%30.19 "Hg4 mi
9:52 pm52 °FFog.No wind100%30.18 "Hg5 mi
8:52 pm52 °FFog.No wind97%30.16 "Hg4 mi
8:00 pm54 °FFog.No wind97%30.17 "Hg5 mi
Weather by CustomWeather, © 2016

See weather overviewHow to use our weather pages